Powrót do katalogu

KUIPER-00107

AktywnyŁącznośćLEO
NORAD 65145·PAYLOAD·🇺🇸 United States

Wystrzelony Aug 11, 2025 z Cape Canaveral Space Force Station

Loading…

Następne Przeloty (najbliższe 24 godziny)

TLE

ŚwieżeSource: CelesTrak SupGP

Epoka: Sep 14, 2026, 15:49 UTC

1 65145C 25171P   26257.65964120 -.00006070  00000+0 -79487-3 0  2571
2 65145  51.9013  32.4734 0000558  99.4551  23.0858 14.79925060    16

Śledź KUIPER-00107 w czasie rzeczywistym z AllMySat

Download on the App Store